Showing default

IRIDIUM 175, 43928

Orbit data source: Space-Track

IRIDIUM 175, 43928 is a payload satellite owned by Iridium (US) in LEO that was launched on Fri, 11 Jan 2019 UTC via an FALCON 9 launch vehicle from the Air Force Western Test Range (AFWTR). Payload-class satellites include a variety of spacecraft equipped with specific instruments for various scientific and technological missions. These include communications satellites like Starlink; space stations such as the ISS; scientific satellites like the Hubble; Earth observation satellites from companies like Planet Labs, Umbra, and HawkEye 360; GPS; miniature CubeSats for education and research; and military/defense satellites.

Loading next visibility...
Identifier
43928, 2019-002G
Orbit
LEO
Last TLE update
15 hours ago
Origin
Manufacturer
NGIS SSG Gilbert
Mission
Operational Commercial Communications
Bus & Motor
ELITEBUS, Unknown motor
Mass
860 kg wet, 700 kg dry
Launch date (UTC)
2019-01-11 (6 years ago)
Launch vehicle
FALCON 9
Launch site
Air Force Western Test Range (AFWTR)
Object type
Payload
Rocket body
Debris
Shape & HBR
Trap Box + 2 Pan, 9.4 m
Radar Cross Section
14.423 m², Large (>1 m²)

Expand to show TLE details & history

TLE from 15 hours ago
0 IRIDIUM 175
1 43928U 19002G   25181.82890043  .00000657  00000-0  10021-3 0  9994
2 43928  86.1497  92.2160 0002107  61.6337 298.5092 14.72246998347549
Epoch: 2025-06-30T19:53Z
TLE epoch observation values (Epoch: 2025-06-30T19:53:36.997Z)
Latitude
0.00002°
Longitude
-125.32125°
Altitude
656.298 km
Speed
7.53 km/s
True Right ascension
06h 08m 51s
True Declination
0° 00' 00"
Sunlit
Object was in daylight at epoch
Visualization orbit readout
Latitude
-22.58707°
Longitude
-127.20526°
Altitude
662.331 km
Speed
7.525 km/s
Apparent Right ascension
07h 44m 58s
Apparent Declination
-34° 29' 20"
Sunlit
Object is in daylight
Visualization observer readout
Local Sidereal Time
22:06:48
Azimuth
90.421° ESE
Elevation
-61.434°
Doppler factor
1
Orbital elements
Apogee altitude
652.301 km
Perigee altitude
649.339 km
Semi-major axis
7,028.957 km
Eccentricity
0.00021
Inclination
86.1497°
RAAN
92.216°
Arg. of periapsis
61.6337°
True anomaly
Unknown
Mean anomaly
298.5092°
Eccentric anomaly
Unknown
Mean motion
3.68304 °/min
Orbital period
97.75 mins
BSTAR
0.00010021
Loading maneuver chart data...
Loading SW <> Apogee altitude chart data...
Loading historical data...
Loading historical data...
Loading historical data...
Loading historical data...
Loading historical data...
Loading historical data...
Loading historical data...

IRIDIUM 175 Visibility forecast

Observer location: undefined°, undefined°

Span
Click to sort rows by Start time (UTC) header in descending order
Start Az.
Max El. time (UTC)
Max El. Az.
Max El.
End time (UTC)
End Az.
7 mins2025-07-01 18:51:21.354Z196.428° SSW2025-07-01 18:54:21.354Z248.011° W40.675°2025-07-01 18:58:21.354Z353.322° N
4 mins2025-07-02 05:07:21.354Z55.212° ENE2025-07-02 05:08:21.354Z71.866° E18.009°2025-07-02 05:11:21.354Z117.711° SE
6 mins2025-07-02 06:44:21.354Z328.019° NNW2025-07-02 06:47:21.354Z261.107° W29.957°2025-07-02 06:50:21.354Z212.175° SW
|